Time,TemperatureF,DewpointF,PressureIn,WindDirection,WindDirectionDegrees,WindSpeedMPH,WindSpeedGustMPH,Humidity,HourlyPrecipIn,Conditions,Clouds,dailyrainin,SoftwareType,DateUTC
2013-11-20 00:07:00,65.0,63.0,29.95,NNE,30,0.0,3.0,93,0.00,,,0.00,weatherlink.com 1.10,2013-11-20 05:07:00,
2013-11-20 00:22:00,64.7,63.0,29.95,North,10,1.0,3.0,93,0.00,,,0.00,weatherlink.com 1.10,2013-11-20 05:22:00,
2013-11-20 00:37:00,64.4,62.0,29.95,North,5,0.0,2.0,93,0.00,,,0.00,weatherlink.com 1.10,2013-11-20 05:37:00,
2013-11-20 00:52:00,64.2,63.0,29.95,North,355,0.0,2.0,94,0.00,,,0.00,weatherlink.com 1.10,2013-11-20 05:52:00,
2013-11-20 01:07:00,64.2,63.0,29.96,NNW,327,1.0,5.0,94,0.00,,,0.00,weatherlink.com 1.10,2013-11-20 06:07:00,
2013-11-20 01:22:00,64.1,62.0,29.95,North,5,2.0,3.0,94,0.00,,,0.00,weatherlink.com 1.10,2013-11-20 06:22:00,
2013-11-20 01:37:00,63.8,62.0,29.95,North,5,1.0,2.0,94,0.00,,,0.00,weatherlink.com 1.10,2013-11-20 06:37:00,
2013-11-20 01:52:00,63.7,62.0,29.95,NNW,339,0.0,3.0,94,0.00,,,0.00,weatherlink.com 1.10,2013-11-20 06:52:00,
2013-11-20 02:07:00,63.5,62.0,29.96,NNW,336,0.0,3.0,94,0.00,,,0.00,weatherlink.com 1.10,2013-11-20 07:07:00,
2013-11-20 02:22:00,63.5,62.0,29.96,NNE,15,2.0,4.0,95,0.00,,,0.00,weatherlink.com 1.10,2013-11-20 07:22:00,
2013-11-20 02:37:00,63.6,62.0,29.96,NNW,328,1.0,3.0,95,0.00,,,0.00,weatherlink.com 1.10,2013-11-20 07:37:00,
2013-11-20 02:52:00,63.6,62.0,29.96,NNE,13,1.0,2.0,95,0.00,,,0.00,weatherlink.com 1.10,2013-11-20 07:52:00,
2013-11-20 03:07:00,63.6,62.0,29.96,NNE,13,1.0,3.0,95,0.00,,,0.00,weatherlink.com 1.10,2013-11-20 08:07:00,
2013-11-20 03:22:00,63.7,62.0,29.96,NNE,22,1.0,3.0,95,0.00,,,0.00,weatherlink.com 1.10,2013-11-20 08:22:00,
2013-11-20 03:37:00,63.6,62.0,29.96,NNE,21,0.0,3.0,95,0.00,,,0.00,weatherlink.com 1.10,2013-11-20 08:37:00,
2013-11-20 03:52:00,63.5,62.0,29.96,NNE,21,0.0,2.0,95,0.00,,,0.00,weatherlink.com 1.10,2013-11-20 08:52:00,
2013-11-20 04:07:00,63.5,62.0,29.96,NNE,21,1.0,2.0,95,0.00,,,0.00,weatherlink.com 1.10,2013-11-20 09:07:00,
2013-11-20 04:22:00,63.5,62.0,29.96,NNE,21,0.0,2.0,95,0.00,,,0.00,weatherlink.com 1.10,2013-11-20 09:22:00,
2013-11-20 04:37:00,63.5,62.0,29.96,NNE,21,0.0,1.0,95,0.00,,,0.00,weatherlink.com 1.10,2013-11-20 09:37:00,
2013-11-20 04:52:00,63.6,62.0,29.96,NNE,21,0.0,0.0,95,0.00,,,0.00,weatherlink.com 1.10,2013-11-20 09:52:00,
2013-11-20 05:07:00,63.5,62.0,29.96,NNE,21,0.0,0.0,96,0.00,,,0.00,weatherlink.com 1.10,2013-11-20 10:07:00,
2013-11-20 05:22:00,63.5,62.0,29.96,NNE,21,0.0,1.0,96,0.00,,,0.00,weatherlink.com 1.10,2013-11-20 10:22:00,
2013-11-20 05:37:00,63.5,62.0,29.97,NNE,21,0.0,3.0,96,0.00,,,0.00,weatherlink.com 1.10,2013-11-20 10:37:00,
2013-11-20 05:52:00,63.6,63.0,29.98,NNE,23,1.0,3.0,96,0.00,,,0.00,weatherlink.com 1.10,2013-11-20 10:52:00,
2013-11-20 06:07:00,64.0,63.0,29.99,NNW,327,4.0,4.0,96,0.00,,,0.00,weatherlink.com 1.10,2013-11-20 11:07:00,
2013-11-20 06:22:00,64.6,64.0,29.99,North,355,0.0,3.0,96,0.00,,,0.00,weatherlink.com 1.10,2013-11-20 11:22:00,
2013-11-20 06:37:00,65.0,64.0,29.99,NNE,24,0.0,3.0,96,0.00,,,0.00,weatherlink.com 1.10,2013-11-20 11:37:00,
2013-11-20 06:52:00,65.2,64.0,30.00,NNE,22,0.0,3.0,96,0.00,,,0.00,weatherlink.com 1.10,2013-11-20 11:52:00,
2013-11-20 07:07:00,65.2,64.0,29.99,NNE,22,1.0,3.0,96,0.00,,,0.00,weatherlink.com 1.10,2013-11-20 12:07:00,
2013-11-20 07:22:00,65.5,64.0,29.99,NNE,22,1.0,3.0,96,0.00,,,0.00,weatherlink.com 1.10,2013-11-20 12:22:00,
2013-11-20 07:37:00,66.0,65.0,30.00,NNE,22,0.0,2.0,96,0.00,,,0.00,weatherlink.com 1.10,2013-11-20 12:37:00,
2013-11-20 07:52:00,66.6,66.0,30.01,NNE,22,0.0,1.0,96,0.00,,,0.00,weatherlink.com 1.10,2013-11-20 12:52:00,
2013-11-20 08:08:00,67.8,66.0,30.01,NE,45,3.0,5.0,95,0.00,,,0.00,weatherlink.com 1.10,2013-11-20 13:08:00,
2013-11-20 08:23:00,68.1,67.0,30.02,NNE,17,0.0,3.0,95,0.00,,,0.00,weatherlink.com 1.10,2013-11-20 13:23:00,
2013-11-20 08:38:00,69.4,68.0,30.03,NNW,329,0.0,3.0,94,0.00,,,0.00,weatherlink.com 1.10,2013-11-20 13:38:00,
2013-11-20 08:53:00,71.6,69.0,30.03,NE,38,3.0,7.0,91,0.00,,,0.00,weatherlink.com 1.10,2013-11-20 13:53:00,
2013-11-20 09:08:00,72.8,70.0,30.04,NE,34,3.0,6.0,89,0.00,,,0.00,weatherlink.com 1.10,2013-11-20 14:08:00,
2013-11-20 09:23:00,74.1,70.0,30.03,ENE,71,2.0,5.0,88,0.00,,,0.00,weatherlink.com 1.10,2013-11-20 14:23:00,
2013-11-20 09:38:00,76.2,71.0,30.04,NE,40,4.0,6.0,84,0.00,,,0.00,weatherlink.com 1.10,2013-11-20 14:38:00,
2013-11-20 09:53:00,76.7,71.0,30.04,NE,46,4.0,7.0,83,0.00,,,0.00,weatherlink.com 1.10,2013-11-20 14:53:00,
2013-11-20 10:08:00,77.0,72.0,30.04,NE,47,4.0,8.0,83,0.00,,,0.00,weatherlink.com 1.10,2013-11-20 15:08:00,
2013-11-20 10:23:00,78.7,72.0,30.04,NNE,23,3.0,10.0,80,0.00,,,0.00,weatherlink.com 1.10,2013-11-20 15:23:00,
2013-11-20 10:38:00,77.6,71.0,30.04,ENE,74,2.0,11.0,81,0.00,,,0.00,weatherlink.com 1.10,2013-11-20 15:38:00,
2013-11-20 10:53:00,77.8,72.0,30.03,NE,42,2.0,9.0,82,0.00,,,0.00,weatherlink.com 1.10,2013-11-20 15:53:00,
2013-11-20 11:08:00,79.5,73.0,30.03,ESE,102,0.0,11.0,79,0.00,,,0.00,weatherlink.com 1.10,2013-11-20 16:08:00,
2013-11-20 11:23:00,79.7,72.0,30.02,East,84,2.0,11.0,78,0.00,,,0.00,weatherlink.com 1.10,2013-11-20 16:23:00,
2013-11-20 11:38:00,79.8,72.0,30.02,NE,42,4.0,9.0,78,0.00,,,0.00,weatherlink.com 1.10,2013-11-20 16:38:00,
2013-11-20 11:53:00,80.2,72.0,30.02,ENE,78,1.0,9.0,77,0.00,,,0.00,weatherlink.com 1.10,2013-11-20 16:53:00,
2013-11-20 12:08:00,80.4,73.0,30.01,NE,40,3.0,8.0,78,0.00,,,0.00,weatherlink.com 1.10,2013-11-20 17:08:00,
2013-11-20 12:23:00,81.0,73.0,30.00,ENE,69,4.0,9.0,76,0.00,,,0.00,weatherlink.com 1.10,2013-11-20 17:23:00,
2013-11-20 12:38:00,80.8,73.0,30.00,NE,44,5.0,10.0,77,0.00,,,0.00,weatherlink.com 1.10,2013-11-20 17:38:00,
2013-11-20 12:53:00,81.8,74.0,30.00,ENE,65,4.0,12.0,76,0.00,,,0.00,weatherlink.com 1.10,2013-11-20 17:53:00,
2013-11-20 13:08:00,80.2,72.0,29.99,NE,45,7.0,11.0,77,0.00,,,0.00,weatherlink.com 1.10,2013-11-20 18:08:00,
2013-11-20 13:23:00,77.6,74.0,29.99,NNE,26,7.0,10.0,87,0.03,,,0.03,weatherlink.com 1.10,2013-11-20 18:23:00,
2013-11-20 13:38:00,76.8,73.0,29.98,NE,42,3.0,8.0,89,0.07,,,0.07,weatherlink.com 1.10,2013-11-20 18:38:00,
2013-11-20 13:53:00,78.0,73.0,29.97,ENE,63,8.0,9.0,83,0.07,,,0.07,weatherlink.com 1.10,2013-11-20 18:53:00,
2013-11-20 14:08:00,79.8,74.0,29.97,NE,44,9.0,10.0,81,0.07,,,0.07,weatherlink.com 1.10,2013-11-20 19:08:00,
2013-11-20 14:23:00,80.7,73.0,29.98,ENE,60,3.0,10.0,76,0.03,,,0.07,weatherlink.com 1.10,2013-11-20 19:23:00,
2013-11-20 14:38:00,79.1,74.0,29.98,North,5,6.0,11.0,83,0.00,,,0.07,weatherlink.com 1.10,2013-11-20 19:38:00,
2013-11-20 14:53:00,77.2,73.0,29.98,NE,36,5.0,13.0,86,0.00,,,0.07,weatherlink.com 1.10,2013-11-20 19:53:00,
2013-11-20 15:08:00,76.0,72.0,29.99,NNW,336,8.0,18.0,87,0.00,,,0.07,weatherlink.com 1.10,2013-11-20 20:08:00,
2013-11-20 15:23:00,74.8,70.0,29.98,NE,45,5.0,11.0,85,0.00,,,0.07,weatherlink.com 1.10,2013-11-20 20:23:00,
2013-11-20 15:38:00,74.8,71.0,29.98,NE,44,6.0,13.0,89,0.00,,,0.07,weatherlink.com 1.10,2013-11-20 20:38:00,
2013-11-20 15:53:00,74.8,71.0,29.99,ENE,65,4.0,14.0,89,0.00,,,0.07,weatherlink.com 1.10,2013-11-20 20:53:00,
2013-11-20 16:08:00,75.0,72.0,30.00,NE,55,9.0,14.0,89,0.00,,,0.07,weatherlink.com 1.10,2013-11-20 21:08:00,
2013-11-20 16:23:00,74.6,71.0,30.00,NE,51,4.0,10.0,89,0.00,,,0.07,weatherlink.com 1.10,2013-11-20 21:23:00,
2013-11-20 16:38:00,74.3,71.0,30.01,ENE,76,3.0,8.0,89,0.00,,,0.07,weatherlink.com 1.10,2013-11-20 21:38:00,
2013-11-20 16:53:00,73.7,70.0,30.01,ESE,107,5.0,9.0,89,0.00,,,0.07,weatherlink.com 1.10,2013-11-20 21:53:00,
2013-11-20 17:08:00,73.1,70.0,30.01,NE,41,3.0,10.0,89,0.00,,,0.07,weatherlink.com 1.10,2013-11-20 22:08:00,
2013-11-20 17:23:00,72.7,69.0,30.02,ENE,59,3.0,9.0,89,0.00,,,0.07,weatherlink.com 1.10,2013-11-20 22:23:00,
2013-11-20 17:38:00,72.3,69.0,30.02,NE,37,4.0,8.0,89,0.00,,,0.07,weatherlink.com 1.10,2013-11-20 22:38:00,
2013-11-20 17:53:00,71.9,69.0,30.02,ENE,64,3.0,8.0,91,0.00,,,0.07,weatherlink.com 1.10,2013-11-20 22:53:00,
2013-11-20 18:08:00,71.5,69.0,30.03,NNE,33,2.0,9.0,91,0.00,,,0.07,weatherlink.com 1.10,2013-11-20 23:08:00,
2013-11-20 18:23:00,71.3,69.0,30.03,NE,38,7.0,9.0,92,0.00,,,0.07,weatherlink.com 1.10,2013-11-20 23:23:00,
2013-11-20 18:38:00,71.3,69.0,30.04,ENE,69,2.0,10.0,92,0.00,,,0.07,weatherlink.com 1.10,2013-11-20 23:38:00,
2013-11-20 18:53:00,71.2,69.0,30.04,NE,53,5.0,7.0,92,0.00,,,0.07,weatherlink.com 1.10,2013-11-20 23:53:00,
2013-11-20 19:08:00,71.0,69.0,30.05,NNE,29,3.0,7.0,92,0.00,,,0.07,weatherlink.com 1.10,2013-11-21 00:08:00,
2013-11-20 19:24:00,70.7,68.0,30.05,ENE,65,3.0,6.0,92,0.00,,,0.07,weatherlink.com 1.10,2013-11-21 00:24:00,
2013-11-20 19:39:00,70.5,68.0,30.06,NE,42,2.0,9.0,92,0.00,,,0.07,weatherlink.com 1.10,2013-11-21 00:39:00,
2013-11-20 19:54:00,70.2,68.0,30.06,NE,46,2.0,7.0,93,0.00,,,0.07,weatherlink.com 1.10,2013-11-21 00:54:00,
2013-11-20 20:09:00,70.0,68.0,30.07,ENE,73,2.0,5.0,93,0.00,,,0.07,weatherlink.com 1.10,2013-11-21 01:09:00,
2013-11-20 20:24:00,69.9,68.0,30.07,NE,53,0.0,4.0,93,0.00,,,0.07,weatherlink.com 1.10,2013-11-21 01:24:00,
2013-11-20 20:39:00,69.7,68.0,30.08,NE,49,2.0,4.0,93,0.00,,,0.07,weatherlink.com 1.10,2013-11-21 01:39:00,
2013-11-20 20:54:00,69.6,68.0,30.08,NE,43,4.0,4.0,94,0.00,,,0.07,weatherlink.com 1.10,2013-11-21 01:54:00,
2013-11-20 21:09:00,69.5,68.0,30.08,NE,35,3.0,5.0,94,0.00,,,0.07,weatherlink.com 1.10,2013-11-21 02:09:00,
2013-11-20 21:24:00,69.5,68.0,30.08,NE,39,1.0,4.0,95,0.00,,,0.07,weatherlink.com 1.10,2013-11-21 02:24:00,
2013-11-20 21:39:00,69.5,68.0,30.08,NE,47,2.0,6.0,95,0.00,,,0.07,weatherlink.com 1.10,2013-11-21 02:39:00,
2013-11-20 21:54:00,69.5,68.0,30.08,NE,44,1.0,5.0,95,0.00,,,0.07,weatherlink.com 1.10,2013-11-21 02:54:00,
2013-11-20 22:09:00,69.5,68.0,30.08,NE,36,1.0,5.0,95,0.00,,,0.07,weatherlink.com 1.10,2013-11-21 03:09:00,
2013-11-20 22:24:00,69.5,68.0,30.09,NE,51,2.0,5.0,95,0.00,,,0.07,weatherlink.com 1.10,2013-11-21 03:24:00,
2013-11-20 22:39:00,69.3,68.0,30.09,NE,42,3.0,5.0,95,0.00,,,0.07,weatherlink.com 1.10,2013-11-21 03:39:00,
2013-11-20 22:54:00,69.4,68.0,30.09,NE,53,1.0,4.0,96,0.00,,,0.07,weatherlink.com 1.10,2013-11-21 03:54:00,
2013-11-20 23:09:00,69.5,68.0,30.09,NE,52,3.0,4.0,96,0.00,,,0.07,weatherlink.com 1.10,2013-11-21 04:09:00,
2013-11-20 23:24:00,69.5,68.0,30.08,NE,54,2.0,6.0,96,0.00,,,0.07,weatherlink.com 1.10,2013-11-21 04:24:00,
2013-11-20 23:39:00,69.5,68.0,30.09,NE,49,1.0,4.0,96,0.00,,,0.07,weatherlink.com 1.10,2013-11-21 04:39:00,
2013-11-20 23:54:00,69.4,68.0,30.09,NE,55,1.0,3.0,96,0.00,,,0.07,weatherlink.com 1.10,2013-11-21 04:54:00,